Regional Weather Roundup
Issued by NWS

Home | Current Version | Previous Version | Graphics & Text | Print | Product List | Glossary On
Versions: 1 2 3 4 5 6 7 8 9 10 11 12 13 14 15 16 17 18 19 20 21 22 23 24 25 26 27 28 29 30 31 32 33 34 35 36 37 38 39 40 41 42 43 44 45 46 47 48 49 50
000
ASUS43 KIND 241809
RWRIN

WEATHER ROUNDUP FOR INDIANA
NATIONAL WEATHER SERVICE INDIANAPOLIS IN
200 PM EDT SUN MAY 24 2015

NOTE: "FAIR" INDICATES FEW OR NO CLOUDS BELOW 12,000 FEET WITH NO
SIGNIFICANT WEATHER AND/OR OBSTRUCTIONS TO VISIBILITY.

* - STATION DOES NOT REPORT WEATHER SUCH AS PRECIPITATION OR FOG.

+ - STATION NOT QUALITY CONTROLLED BY THE NATIONAL WEATHER SERVICE.
    USE DATA WITH CAUTION...ESPECIALLY DEWPOINT AND RELATIVE
    HUMIDITY OBSERVATIONS.

INZ001>003-010>013-019-020-241900-
NORTHWEST INDIANA

CITY           SKY/WX    TMP DP  RH WIND       PRES   REMARKS
GARY /AIRPORT/ CLOUDY    77  55  47 SE8       30.11F
KNOX *+        CLOUDY    81  54  39 SE9       30.12F
LA PORTE +     CLOUDY    79  56  44 SE10      30.14F
6HR MIN TEMP:  62; 6HR MAX TEMP:  79;

MICHIGAN CITY+ CLOUDY    75  52  43 SE7       30.13F
MONTICELLO +   MOSUNNY   81  61  50 S12G18    30.12F
6HR MIN TEMP:  61; 6HR MAX TEMP:  81;

RENSSELAER +   PTSUNNY   81  57  44 S17       30.11F
VALPARAISO     CLOUDY    79  57  46 S12G20    30.12F
6HR MIN TEMP:  61; 6HR MAX TEMP:  79; 6HR PCP: TRACE;


$$

LMZ046-743>745-241900-
SOUTHERN LAKE MICHIGAN

STATION/POSITION TIME  TEMP    WIND        PRES    WAVE
                       AIR SEA DIR/SP/G            HT
                 (UTC) (F)     (DEG/KT/KT) (MB)    (FT)
BURNS HARBOR     1800   76     170/  7/ 13 1020.3F
MICHIGAN CITY    1800   74     110/  7/ 10   N/A
5NW MICH CITY    1800   64 54  120/  6/  8   N/A     0

$$

INZ004-005-014>016-021>024-241900-
NORTH CENTRAL INDIANA

CITY           SKY/WX    TMP DP  RH WIND       PRES   REMARKS
ELKHART        CLOUDY    75  54  46 SE7       30.17F
GOSHEN         CLOUDY    76  56  49 SE8       30.17F
6HR MIN TEMP:  61; 6HR MAX TEMP:  77; 6HR PCP:  0.01;

LOGANSPORT +   PTSUNNY   81  50  34 S14       30.15F
PERU/GRISSOM   PTSUNNY   81  58  46 S13G20    30.14F
6HR MIN TEMP:  62; 6HR MAX TEMP:  82; 6HR PCP: TRACE;

ROCHESTER +    PTSUNNY   82  57  42 S9G16     30.16F
SOUTH BEND     CLOUDY    76  54  46 SE10      30.16F
6HR MIN TEMP:  61; 6HR MAX TEMP:  76;

WARSAW +       PTSUNNY   77  55  47 SE3       30.17F

$$

INZ006>009-017-018-025>027-241900-
NORTHEAST INDIANA

CITY           SKY/WX    TMP DP  RH WIND       PRES   REMARKS
ANGOLA *+      MOSUNNY   73  57  56 S5        30.20F
AUBURN +       CLOUDY    79  54  41 S5        30.20F
FORT WAYNE     CLOUDY    78  56  46 S9        30.19F
6HR MIN TEMP:  60; 6HR MAX TEMP:  78; 6HR PCP: TRACE;

HUNTINGTON +   PTSUNNY   79  57  47 S7        30.17F
6HR MIN TEMP:  60; 6HR MAX TEMP:  79;


$$

INZ028-029-035-036-043>045-051>053-241900-
WEST CENTRAL INDIANA

CITY           SKY/WX    TMP DP  RH WIND       PRES   REMARKS
CRAWFORDSVL +  MOSUNNY   81  48  31 S14       30.14F
6HR MIN TEMP:  62; 6HR MAX TEMP:  81;

GREENCASTLE +  MOSUNNY   77  54  44 S10G20    30.16S
LAFAYETTE      CLOUDY    80  57  45 S13G21    30.12F
6HR MIN TEMP:  61; 6HR MAX TEMP:  81;

TERRE HAUTE    PTSUNNY   82  61  48 S16       30.13F
6HR MIN TEMP:  65; 6HR MAX TEMP:  82;


$$

INZ030>032-037>040-046>048-054>057-064-065-241900-
CENTRAL INDIANA

CITY           SKY/WX    TMP DP  RH WIND       PRES   REMARKS
CP ATTERBURY + MOSUNNY   81  55  41 S12G18    30.18F
COLUMBUS       MOSUNNY   81  48  32 S18       30.18F
FRANKFORT +    MOSUNNY   83  56  40 S10G16    30.16F
6HR MIN TEMP:  64; 6HR MAX TEMP:  84;

GREENWOOD *+   MOSUNNY   82  48  30 S15       30.18F
INDIANAPOLIS   PTSUNNY   81  55  40 S17G23    30.15F
6HR MIN TEMP:  63; 6HR MAX TEMP:  82;

-EAGLE CREEK   SUNNY     81  56  42 S12       30.16F
6HR MIN TEMP:  63; 6HR MAX TEMP:  81; 6HR PCP: TRACE;

KOKOMO *+      PTSUNNY   82  59  44 S21       30.16F
6HR MIN TEMP:  63; 6HR MAX TEMP:  82;

MARION +       MOSUNNY   81  52  37 SW15      30.17F
MT COMFORT *+  MOSUNNY   84  34  16 S16       30.17F
SHELBYVILLE    PTSUNNY   84  55  36 S14G20    30.17F
6HR MIN TEMP:  66; 6HR MAX TEMP:  85;

ZIONSVILLE +   MOSUNNY   83  53  35 S15       30.17F
6HR MIN TEMP:  64; 6HR MAX TEMP:  83;


$$

INZ033-034-041-042-049-050-058-059-241900-
EAST CENTRAL INDIANA

CITY           SKY/WX    TMP DP  RH WIND       PRES   REMARKS
MUNCIE         MOSUNNY   82  53  36 SW17G23   30.18F
6HR MIN TEMP:  67; 6HR MAX TEMP:  82; 6HR PCP: TRACE;


$$

INZ060-061-067>069-081>083-085>088-241900-
SOUTHWEST INDIANA

CITY           SKY/WX    TMP DP  RH WIND       PRES   REMARKS
EVANSVILLE     PTSUNNY   81  60  48 S8G21     30.14F
6HR MIN TEMP:  65; 6HR MAX TEMP:  82;

HUNTINGBURG *+ PTSUNNY   81  59  47 S17       30.17S
6HR MIN TEMP:  64; 6HR MAX TEMP:  82;

WASHINGTON +   PTSUNNY   80  52  37 S10G18    30.15S
6HR MIN TEMP:  64; 6HR MAX TEMP:  81;


$$

INZ062-063-066-070>080-084-089>092-241900-
SOUTH CENTRAL AND SOUTHEAST INDIANA

CITY           SKY/WX    TMP DP  RH WIND       PRES   REMARKS
BLOOMINGTON    MOSUNNY   81  57  43 S9G20     30.17F
6HR MIN TEMP:  63; 6HR MAX TEMP:  82;

MADISON *+     MOSUNNY   82  46  28 S7        30.23F
NORTH VERNON + PTSUNNY   81  55  41 S12       30.20F
SEYMOUR +      MOSUNNY   84  54  34 SW16G23   30.18F

$$




USA.gov is the U.S. government's official web portal to all federal, state and local government web resources and services.